Location: Buckeye Ditch
(40.9104°N, 122.9517°W)
Time: 12:46:05
(UTC+00:00)

SR - All Passes

Search period start: 18 May 2025 00:00
Search period end: 28 May 2025 00:00
Orbit: 569 x 857 km, 66.7° (Epoch: 17 May)

Date Brightness Start Highest point End Pass type
(mag) Time Alt. Az. Time Alt. Az. Time Alt. Az.
18 May - 08:08:40 10° S 08:14:07 48° ESE 08:19:41 10° NE visible
18 May - 09:51:04 10° WSW 09:56:07 30° NW 10:01:11 10° NNE visible
18 May - 16:48:59 10° NNW 16:53:47 32° NE 16:58:14 10° ESE daylight
18 May - 18:30:51 10° NW 18:35:32 34° WSW 18:39:51 10° S daylight
19 May - 07:15:49 10° SSE 07:20:11 23° ESE 07:24:37 10° ENE visible
19 May - 08:55:53 10° SW 09:01:33 57° NW 09:07:16 10° NNE visible
19 May - 10:42:03 10° WNW 10:44:34 13° NW 10:47:05 10° N visible
19 May - 15:55:24 10° N 15:58:59 18° NE 16:02:24 10° E daylight
19 May - 17:36:11 10° NNW 17:41:29 79° WSW 17:46:18 10° SSE daylight
20 May - 08:01:31 10° SSW 08:07:14 73° ESE 08:13:01 10° NNE visible
20 May - 09:45:10 10° W 09:49:35 22° NW 09:54:00 10° N visible
20 May - 15:03:46 10° NNE 15:03:55 10° NNE 15:04:03 10° NNE daylight
20 May - 16:41:59 10° NNW 16:47:08 48° NE 16:51:51 10° SE daylight
20 May - 18:24:37 10° WNW 18:28:26 21° WSW 18:32:02 10° SSW daylight
21 May - 07:08:01 10° S 07:13:09 35° ESE 07:18:20 10° NE visible
21 May - 08:49:29 10° WSW 08:54:52 39° NW 09:00:17 10° NNE visible
21 May - 15:48:09 10° N 15:52:30 25° NE 15:56:33 10° E daylight
21 May - 17:29:31 10° NW 17:34:33 49° WSW 17:39:09 10° S daylight
22 May - 06:15:51 10° SE 06:19:17 16° ESE 06:22:46 10° ENE visible
22 May - 07:54:39 10° SW 08:00:24 77° WNW 08:06:13 10° NNE visible
22 May - 09:39:37 10° WNW 09:43:08 16° NW 09:46:38 10° N visible
22 May - 14:54:52 10° N 14:57:34 14° NE 15:00:09 10° ENE daylight
22 May - 16:35:05 10° NNW 16:40:22 74° ENE 16:45:11 10° SE daylight
22 May - 18:19:05 10° WNW 18:21:15 13° WSW 18:23:22 10° SW daylight
23 May - 07:00:37 10° S 07:06:10 53° ESE 07:11:48 10° NE visible
23 May - 08:43:20 10° WSW 08:48:15 28° NW 08:53:11 10° N visible
23 May - 15:41:01 10° NNW 15:45:52 35° NE 15:50:22 10° ESE daylight
23 May - 17:23:02 10° NW 17:27:30 30° WSW 17:31:38 10° S daylight
24 May - 06:07:35 10° SSE 06:12:11 25° ESE 06:16:50 10° NE visible
24 May - 07:48:02 10° SW 07:53:39 52° NW 07:59:17 10° NNE visible
24 May - 09:34:40 10° WNW 09:36:45 12° NW 09:38:48 10° NNW visible
24 May - 14:47:23 10° N 14:51:06 19° NE 14:54:39 10° E daylight
24 May - 16:28:16 10° NW 16:33:29 70° WSW 16:38:13 10° SSE daylight
25 May - 05:16:46 10° ESE 05:18:25 11° E 05:20:04 10° E visible
25 May - 06:53:31 10° SSW 06:59:16 80° ESE 07:05:05 10° NNE visible
25 May - 08:37:29 10° W 08:41:42 20° NW 08:45:55 10° N visible
25 May - 13:54:53 10° NNE 13:56:03 11° NNE 13:57:12 10° NE daylight
25 May - 15:34:00 10° NNW 15:39:10 53° NE 15:43:52 10° SE daylight
25 May - 17:16:54 10° WNW 17:20:22 19° WSW 17:23:39 10° SSW daylight
26 May - 05:59:52 10° S 06:05:08 39° ESE 06:10:28 10° NE visible
26 May - 07:41:38 10° WSW 07:46:57 36° NW 07:52:14 10° NNE visible
26 May - 14:40:06 10° N 14:44:33 26° NE 14:48:40 10° ESE daylight
26 May - 16:21:37 10° NW 16:26:30 43° WSW 16:30:57 10° S daylight
27 May - 05:07:26 10° SSE 05:11:14 18° ESE 05:15:04 10° ENE visible
27 May - 06:46:41 10° SW 06:52:26 70° WNW 06:58:12 10° NNE visible
27 May - 08:32:01 10° WNW 08:35:14 15° NW 08:38:27 10° N visible
27 May - 13:46:44 10° N 13:49:38 15° NE 13:52:26 10° ENE daylight
27 May - 15:27:06 10° NNW 15:32:21 82° ENE 15:37:06 10° SSE daylight
27 May - 17:11:50 10° W 17:13:08 11° W 17:14:26 10° WSW daylight
